Вернуться в каталог

STARLINK-36080

АктивенСвязьVLEO
NORAD 66801·PAYLOAD·🇺🇸 United States

Запущен Dec 1, 2025 с Cape Canaveral Space Force Station

Loading…

Ближайшие Пролёты (ближайшие 24 часа)

TLE

СвежийSource: CelesTrak SupGP

Эпоха: Sep 15, 2026, 03:36 UTC

1 66801C 25278L   26258.15048611  .00043162  00000+0  15631-2 0  2585
2 66801  43.0001 124.7899 0001497 270.0188 321.8085 15.27562045    13

Отслеживайте STARLINK-36080 в реальном времени с AllMySat

Download on the App Store